Time,TemperatureF,DewpointF,PressureIn,WindDirection,WindDirectionDegrees,WindSpeedMPH,WindSpeedGustMPH,Humidity,HourlyPrecipIn,Conditions,Clouds,dailyrainin,SoftwareType,DateUTC
2013-04-30 06:00:00,57.0,44.0,30.15,South,190,6.0,-999.0,62,-99.99,,,-99.99,,2013-04-30 06:00:00,
2013-04-30 06:21:00,57.0,44.0,30.15,South,190,6.0,-999.0,62,-99.99,,,-99.99,,2013-04-30 06:21:00,
2013-04-30 06:31:00,57.0,44.0,30.15,South,190,6.0,-999.0,62,-99.99,,,-99.99,,2013-04-30 06:31:00,
2013-04-30 06:41:00,57.0,44.0,30.15,South,190,6.0,-999.0,62,-99.99,,,-99.99,,2013-04-30 06:41:00,
2013-04-30 06:51:00,57.0,44.0,30.15,South,190,6.0,-999.0,62,-99.99,,,-99.99,,2013-04-30 06:51:00,
2013-04-30 12:00:00,56.0,44.0,30.24,SSW,200,5.0,-999.0,64,-99.99,,,-99.99,,2013-04-30 12:00:00,
2013-04-30 12:21:00,56.0,44.0,30.24,SSW,200,5.0,-999.0,64,-99.99,,,-99.99,,2013-04-30 12:21:00,
2013-04-30 12:31:00,56.0,44.0,30.24,SSW,200,5.0,-999.0,64,-99.99,,,-99.99,,2013-04-30 12:31:00,
2013-04-30 12:41:00,56.0,44.0,30.24,SSW,200,5.0,-999.0,64,-99.99,,,-99.99,,2013-04-30 12:41:00,
2013-04-30 12:51:00,56.0,44.0,30.24,SSW,200,5.0,-999.0,64,-99.99,,,-99.99,,2013-04-30 12:51:00,
2013-04-30 13:00:00,58.0,45.0,30.25,South,190,6.0,-999.0,61,-99.99,,,-99.99,,2013-04-30 13:00:00,
2013-04-30 13:21:00,58.0,45.0,30.25,South,190,6.0,-999.0,61,-99.99,,,-99.99,,2013-04-30 13:21:00,
2013-04-30 13:31:00,58.0,45.0,30.25,South,190,6.0,-999.0,61,-99.99,,,-99.99,,2013-04-30 13:31:00,
2013-04-30 13:41:00,58.0,45.0,30.25,South,190,6.0,-999.0,61,-99.99,,,-99.99,,2013-04-30 13:41:00,
2013-04-30 13:51:00,58.0,45.0,30.25,South,190,6.0,-999.0,61,-99.99,,,-99.99,,2013-04-30 13:51:00,
2013-04-30 14:00:00,60.0,46.0,30.25,South,190,2.0,-999.0,59,-99.99,,,-99.99,,2013-04-30 14:00:00,
2013-04-30 14:21:00,60.0,46.0,30.25,South,190,2.0,-999.0,59,-99.99,,,-99.99,,2013-04-30 14:21:00,
2013-04-30 14:31:00,60.0,46.0,30.25,South,190,2.0,-999.0,59,-99.99,,,-99.99,,2013-04-30 14:31:00,
2013-04-30 14:41:00,60.0,46.0,30.25,South,190,2.0,-999.0,59,-99.99,,,-99.99,,2013-04-30 14:41:00,
2013-04-30 14:51:00,60.0,46.0,30.25,South,190,2.0,-999.0,59,-99.99,,,-99.99,,2013-04-30 14:51:00,
2013-04-30 15:00:00,62.0,47.0,30.25,South,190,5.0,-999.0,59,-99.99,,,-99.99,,2013-04-30 15:00:00,
2013-04-30 15:21:00,62.0,47.0,30.25,South,190,5.0,-999.0,59,-99.99,,,-99.99,,2013-04-30 15:21:00,
2013-04-30 15:32:00,62.0,47.0,30.25,South,190,5.0,-999.0,59,-99.99,,,-99.99,,2013-04-30 15:32:00,
2013-04-30 15:42:00,62.0,47.0,30.25,South,190,5.0,-999.0,59,-99.99,,,-99.99,,2013-04-30 15:42:00,
2013-04-30 15:52:00,62.0,47.0,30.25,South,190,5.0,-999.0,59,-99.99,,,-99.99,,2013-04-30 15:52:00,
2013-04-30 16:00:00,61.0,47.0,30.24,SSE,150,9.0,-999.0,61,-99.99,,,-99.99,,2013-04-30 16:00:00,
2013-04-30 16:22:00,61.0,47.0,30.24,SSE,150,9.0,-999.0,61,-99.99,,,-99.99,,2013-04-30 16:22:00,
2013-04-30 16:32:00,61.0,47.0,30.24,SSE,150,9.0,-999.0,61,-99.99,,,-99.99,,2013-04-30 16:32:00,
2013-04-30 16:42:00,61.0,47.0,30.24,SSE,150,9.0,-999.0,61,-99.99,,,-99.99,,2013-04-30 16:42:00,
2013-04-30 16:52:00,61.0,47.0,30.24,SSE,150,9.0,-999.0,61,-99.99,,,-99.99,,2013-04-30 16:52:00,
2013-04-30 18:00:00,61.0,47.0,30.23,WNW,290,9.0,-999.0,59,-99.99,,,-99.99,,2013-04-30 18:00:00,
2013-04-30 18:22:00,61.0,47.0,30.23,WNW,290,9.0,-999.0,59,-99.99,,,-99.99,,2013-04-30 18:22:00,
2013-04-30 18:32:00,61.0,47.0,30.23,WNW,290,9.0,-999.0,59,-99.99,,,-99.99,,2013-04-30 18:32:00,
2013-04-30 18:41:00,61.0,47.0,30.23,WNW,290,9.0,-999.0,59,-99.99,,,-99.99,,2013-04-30 18:41:00,
2013-04-30 18:51:00,61.0,47.0,30.23,WNW,290,9.0,-999.0,59,-99.99,,,-99.99,,2013-04-30 18:51:00,
2013-04-30 19:00:00,62.0,49.0,30.23,NW,320,8.0,-999.0,60,-99.99,,,-99.99,,2013-04-30 19:00:00,
2013-04-30 19:31:00,62.0,49.0,30.23,NW,320,8.0,-999.0,60,-99.99,,,-99.99,,2013-04-30 19:31:00,
2013-04-30 19:41:00,62.0,49.0,30.23,NW,320,8.0,-999.0,60,-99.99,,,-99.99,,2013-04-30 19:41:00,
2013-04-30 19:52:00,62.0,49.0,30.23,NW,320,8.0,-999.0,60,-99.99,,,-99.99,,2013-04-30 19:52:00,
2013-04-30 21:00:00,62.0,49.0,30.22,ENE,60,6.0,-999.0,61,-99.99,,,-99.99,,2013-04-30 21:00:00,
2013-04-30 21:21:00,62.0,49.0,30.22,ENE,60,6.0,-999.0,61,-99.99,,,-99.99,,2013-04-30 21:21:00,
2013-04-30 21:32:00,62.0,49.0,30.22,ENE,60,6.0,-999.0,61,-99.99,,,-99.99,,2013-04-30 21:32:00,
2013-04-30 21:42:00,62.0,49.0,30.22,ENE,60,6.0,-999.0,61,-99.99,,,-99.99,,2013-04-30 21:42:00,
2013-04-30 21:52:00,62.0,49.0,30.22,ENE,60,6.0,-999.0,61,-99.99,,,-99.99,,2013-04-30 21:52:00,
2013-04-30 22:00:00,63.0,49.0,30.22,ENE,60,7.0,-999.0,60,-99.99,,,-99.99,,2013-04-30 22:00:00,
2013-04-30 22:22:00,63.0,49.0,30.22,ENE,60,7.0,-999.0,60,-99.99,,,-99.99,,2013-04-30 22:22:00,
2013-04-30 22:32:00,63.0,49.0,30.22,ENE,60,7.0,-999.0,60,-99.99,,,-99.99,,2013-04-30 22:32:00,
2013-04-30 22:41:00,63.0,49.0,30.22,ENE,60,7.0,-999.0,60,-99.99,,,-99.99,,2013-04-30 22:41:00,
2013-04-30 22:52:00,63.0,49.0,30.22,ENE,60,7.0,-999.0,60,-99.99,,,-99.99,,2013-04-30 22:52:00,
2013-04-30 23:00:00,65.0,50.0,30.22,NE,40,7.0,-999.0,57,-99.99,,,-99.99,,2013-04-30 23:00:00,
2013-04-30 23:21:00,65.0,50.0,30.22,NE,40,7.0,-999.0,57,-99.99,,,-99.99,,2013-04-30 23:21:00,
2013-04-30 23:32:00,65.0,50.0,30.22,NE,40,7.0,-999.0,57,-99.99,,,-99.99,,2013-04-30 23:32:00,
2013-04-30 23:42:00,65.0,50.0,30.22,NE,40,7.0,-999.0,57,-99.99,,,-99.99,,2013-04-30 23:42:00,
2013-04-30 23:52:00,65.0,50.0,30.22,NE,40,7.0,-999.0,57,-99.99,,,-99.99,,2013-04-30 23:52:00,